Zurück zum Katalog

STARLINK-31647

AktivKommunikationVLEO
NORAD 59389·PAYLOAD·🇺🇸 United States

Gestartet Apr 2, 2024 von Vandenberg Space Force Base

Loading…

Nächste Überflüge (nächste 24 Stunden)

TLE

AktuellSource: CelesTrak SupGP

Epoche: Sep 15, 2026, 01:59 UTC

1 59389C 24062R   26258.08312500  .00015975  00000+0  47207-3 0  2587
2 59389  53.1571  93.2687 0001416  83.0908  27.7542 15.34376773    17

Verfolge STARLINK-31647 in Echtzeit mit AllMySat

Download on the App Store